Zurück zum Katalog

BB 1

AktivAmateurfunkPO
NORAD 56171·PAYLOAD·🇺🇸 United States

Gestartet Apr 2, 2023 von Vandenberg Space Force Base

Loading…

Nächste Überflüge (nächste 24 Stunden)

TLE

AlterndSource: Space-Track

Epoche: Sep 9, 2026, 19:12 UTC

1 56171U 23050K   26252.80000030  .00000192  00000-0  72380-4 0  9994
2 56171  81.0038 356.6747 0016175  74.2122 286.0841 14.27917555173420

Verfolge BB 1 in Echtzeit mit AllMySat

Download on the App Store